Location: Unspecified
(0.0000°N, 0.0000°E)
Time: 13:33:18
(UTC+00:00)

CUTE 1.7 + AOD 2 - Pass Details

Date: 12 December 2017
Orbit: 595 x 612 km, 97.5° (Epoch: 23 April)

Event Time Altitude Azimuth Distance (km) Brightness Sun altitude
Rises 18:45:08 0° 173° (S) 2,840 ? -11.7°
Reaches altitude 10° 18:47:18 10° 175° (S) 1,937 ? -12.2°
Maximum altitude 18:51:29 71° 259° (W) 634 ? -13.2°
Drops below altitude 10° 18:55:41 10° 343° (NNW) 1,938 ? -14.2°
Sets 18:57:51 0° 345° (NNW) 2,841 ? -14.7°
